This demonstration page uses our WeatherBlox Daily Observations layout. Learn more.

Left ArrowRight Arrow

38.89511, -77.03637

Hourly Observations for May 15, 2017

Temp ( °F °C ) Dew Point ( °F °C ) Humidity (%) Winds ( mph kmh ) Pressure ( in mb ) Visibility ( mi km ) Precip ( " mm )
12:52 am 00:52 Mostly Cloudy 63 17.2 24 -4.4 23 23 NNW 14 22 29.83 1010 10 16 0.00 0.00
1:52 am 01:52 Cloudy 61 16.1 27 -2.8 27 27 NNW 17 28 29.85 1011 10 16 0.00 0.00
2:52 am 02:52 Mostly Cloudy 59 15 31 -0.6 35 35 NW 12 19 29.86 1011 10 16 0.00 0.00
3:52 am 03:52 Mostly Cloudy 57 13.9 32 0 39 39 NW 10 17 29.87 1012 10 16 0.00 0.00
4:52 am 04:52 Partly Cloudy 56 13.3 32 0 40 40 WNW 12 19 29.88 1012 10 16 0.00 0.00
5:52 am 05:52 Mostly Clear 55 12.8 34 1.1 45 45 NW 13 20 29.90 1013 10 16 0.00 0.00
6:52 am 06:52 Mostly Sunny 55 12.8 36 2.2 49 49 NW 7 11 29.92 1013 10 16 0.00 0.00
7:52 am 07:52 Mostly Sunny 57 13.9 39 3.9 51 51 NW 12 19 29.94 1014 10 16 0.00 0.00
8:52 am 08:52 Sunny 59 15 39 3.9 48 48 NW 16 26 29.95 1014 10 16 0.00 0.00
9:52 am 09:52 Sunny 63 17.2 41 5 45 45 WNW 18 30 29.95 1014 10 16 0.00 0.00
10:52 am 10:52 Sunny 65 18.3 41 5 42 42 WNW 16 26 29.94 1014 10 16 0.00 0.00
11:52 am 11:52 Sunny 67 19.4 40 4.4 37 37 NW 20 31 29.93 1014 10 16 0.00 0.00
12:52 pm 12:52 Sunny 70 21.1 41 5 35 35 WNW 17 28 29.92 1013 10 16 0.00 0.00
1:52 pm 13:52 Sunny 72 22.2 41 5 33 33 NNW 20 31 29.90 1013 10 16 0.00 0.00
2:52 pm 14:52 Mostly Sunny 74 23.3 40 4.4 29 29 NW 16 26 29.90 1012 10 16 0.00 0.00
3:52 pm 15:52 Mostly Sunny 75 23.9 39 3.9 27 27 NW 16 26 29.88 1012 10 16 0.00 0.00
4:52 pm 16:52 Mostly Sunny 77 25 39 3.9 26 26 NNW 24 39 29.88 1012 10 16 0.00 0.00
5:52 pm 17:52 Mostly Sunny 76 24.4 39 3.9 26 26 NW 18 30 29.89 1012 10 16 0.00 0.00
6:52 pm 18:52 Mostly Sunny 75 23.9 40 4.4 28 28 NNW 17 28 29.90 1013 10 16 0.00 0.00
7:52 pm 19:52 Sunny 73 22.8 40 4.4 30 30 NW 9 15 29.93 1013 10 16 0.00 0.00
8:52 pm 20:52 Clear 72 22.2 40 4.4 31 31 VRB 7 11 29.95 1014 10 16 0.00 0.00
9:52 pm 21:52 Clear 69 20.6 41 5 36 36 WNW 7 11 29.96 1015 10 16 0.00 0.00
10:52 pm 22:52 Clear 68 20 41 5 38 38 WNW 6 9 29.98 1015 10 16 0.00 0.00
11:52 pm 23:52 Mostly Clear 65 18.3 43 6.1 45 45 WNW 6 9 30.01 1016 10 16 0.00 0.00

Powered by AerisWeather